When you browse on this site, cookies collect data to enhance your experience and personalize the content and advertising you see.
Visit our Privacy Policy to learn more. By continuing to use the site, you agree to this use of cookies and data.
  • In Romania
  • List of Countries
  • For 7 days
  • Water Temperature
  • Satellite Maps
  • Weather Map
  • Weather Widgets
  • user-avatar
    Login

    Hourly Weather Philadelphia

    Today, 21 March, Thursday

    Time Temperature Precipitation Wind Pressure Humidity
    00:00 +7°C° 0 mm 3 mps 766 mmHg 67%
    01:00 +7°C° 0 mm 3 mps 766 mmHg 72%
    02:00 +7°C° 0.4 mm 3 mps 765 mmHg 77%
    03:00 +8°C° 0.4 mm 2 mps 764 mmHg 81%
    04:00 +8°C° 0.4 mm 2 mps 764 mmHg 86%
    05:00 +8°C° 3.3 mm 3 mps 763 mmHg 89%
    06:00 +8°C° 3.3 mm 3 mps 763 mmHg 91%
    07:00 +7°C° 3.3 mm 4 mps 762 mmHg 94%
    08:00 +7°C° 2.4 mm 4 mps 762 mmHg 92%
    09:00 +8°C° 2.4 mm 4 mps 762 mmHg 91%
    10:00 +10°C° 2.4 mm 4 mps 761 mmHg 89%
    11:00 +10°C° 0.5 mm 4 mps 760 mmHg 86%
    12:00 +10°C° 0.5 mm 5 mps 759 mmHg 84%
    13:00 +10°C° 0.5 mm 5 mps 758 mmHg 81%
    14:00 +10°C° 1.2 mm 5 mps 757 mmHg 82%
    15:00 +10°C° 1.2 mm 6 mps 756 mmHg 83%
    16:00 +10°C° 1.2 mm 6 mps 755 mmHg 85%
    17:00 +10°C° 2.2 mm 6 mps 754 mmHg 86%
    18:00 +9°C° 2.2 mm 6 mps 753 mmHg 87%
    19:00 +9°C° 2.2 mm 6 mps 752 mmHg 88%
    20:00 +9°C° 0.8 mm 6 mps 751 mmHg 88%
    21:00 +9°C° 0.8 mm 5 mps 750 mmHg 89%
    22:00 +9°C° 0.8 mm 5 mps 749 mmHg 89%
    23:00 +8°C° 0.4 mm 4 mps 748 mmHg 92%

    Tomorrow, 22 March, Friday

    Time Temperature Precipitation Wind Pressure Humidity
    00:00 +9°C° 0.4 mm 3 mps 748 mmHg 94%
    01:00 +10°C° 0.4 mm 1 mps 747 mmHg 96%
    02:00 +9°C° 0.3 mm 3 mps 746 mmHg 93%
    03:00 +8°C° 0.3 mm 4 mps 746 mmHg 91%
    04:00 +7°C° 0.3 mm 5 mps 745 mmHg 89%
    05:00 +7°C° 0.1 mm 6 mps 746 mmHg 84%
    06:00 +7°C° 0.1 mm 6 mps 746 mmHg 80%
    07:00 +6°C° 0.1 mm 7 mps 746 mmHg 76%
    08:00 +6°C° 0 mm 7 mps 747 mmHg 68%
    09:00 +8°C° 0 mm 7 mps 747 mmHg 61%
    10:00 +8°C° 0 mm 7 mps 748 mmHg 53%
    11:00 +9°C° 0 mm 7 mps 748 mmHg 50%
    12:00 +9°C° 0 mm 7 mps 747 mmHg 48%
    13:00 +9°C° 0 mm 7 mps 747 mmHg 45%
    14:00 +9°C° 0.1 mm 7 mps 747 mmHg 44%
    15:00 +9°C° 0.1 mm 8 mps 747 mmHg 44%
    16:00 +9°C° 0.1 mm 8 mps 747 mmHg 43%
    17:00 +7°C° 0.1 mm 8 mps 748 mmHg 46%
    18:00 +6°C° 0.1 mm 8 mps 748 mmHg 48%
    19:00 +5°C° 0.1 mm 8 mps 749 mmHg 50%
    20:00 +4°C° 0 mm 8 mps 750 mmHg 51%
    21:00 +2°C° 0 mm 8 mps 751 mmHg 51%
    22:00 +1°C° 0 mm 8 mps 752 mmHg 52%
    23:00 +1°C° 0 mm 8 mps 752 mmHg 52%

    Day after tomorrow, 23 March, Saturday

    Time Temperature Precipitation Wind Pressure Humidity
    00:00 0°C° 0 mm 8 mps 752 mmHg 52%
    01:00 -1°C° 0 mm 8 mps 753 mmHg 53%
    02:00 -1°C° 0 mm 8 mps 753 mmHg 53%
    03:00 -1°C° 0 mm 8 mps 754 mmHg 52%
    04:00 -2°C° 0 mm 8 mps 754 mmHg 52%
    05:00 -2°C° 0 mm 8 mps 755 mmHg 51%
    06:00 -2°C° 0 mm 8 mps 755 mmHg 50%
    07:00 -2°C° 0 mm 8 mps 756 mmHg 49%
    08:00 -1°C° 0 mm 8 mps 757 mmHg 46%
    09:00 0°C° 0 mm 8 mps 757 mmHg 42%
    10:00 +2°C° 0 mm 7 mps 758 mmHg 38%
    11:00 +4°C° 0 mm 7 mps 758 mmHg 34%
    12:00 +5°C° 0 mm 7 mps 759 mmHg 30%
    13:00 +6°C° 0 mm 7 mps 759 mmHg 26%
    14:00 +8°C° 0 mm 7 mps 759 mmHg 26%
    15:00 +8°C° 0 mm 7 mps 760 mmHg 25%
    16:00 +9°C° 0 mm 6 mps 760 mmHg 25%
    17:00 +8°C° 0 mm 6 mps 761 mmHg 27%
    18:00 +7°C° 0 mm 6 mps 762 mmHg 30%
    19:00 +6°C° 0 mm 5 mps 763 mmHg 32%
    20:00 +5°C° 0 mm 5 mps 764 mmHg 34%
    21:00 +3°C° 0 mm 5 mps 764 mmHg 36%
    22:00 +3°C° 0 mm 5 mps 765 mmHg 39%
    23:00 +3°C° 0 mm 4 mps 765 mmHg 42%

    24 March, Sunday

    Time Temperature Precipitation Wind Pressure Humidity
    00:00 +1°C° 0 mm 4 mps 765 mmHg 45%
    01:00 +1°C° 0 mm 4 mps 766 mmHg 48%
    02:00 0°C° 0 mm 4 mps 766 mmHg 47%
    03:00 0°C° 0 mm 4 mps 766 mmHg 46%
    04:00 +1°C° 0 mm 3 mps 766 mmHg 46%
    05:00 +1°C° 0 mm 3 mps 767 mmHg 45%
    06:00 +1°C° 0 mm 3 mps 767 mmHg 44%
    07:00 +2°C° 0 mm 2 mps 767 mmHg 43%
    08:00 +3°C° 0 mm 3 mps 767 mmHg 39%
    09:00 +5°C° 0 mm 3 mps 766 mmHg 36%
    10:00 +8°C° 0 mm 3 mps 766 mmHg 33%
    11:00 +10°C° 0 mm 4 mps 766 mmHg 32%
    12:00 +12°C° 0 mm 4 mps 765 mmHg 30%
    13:00 +14°C° 0 mm 4 mps 765 mmHg 29%
    14:00 +14°C° 0 mm 4 mps 764 mmHg 31%
    15:00 +14°C° 0 mm 4 mps 764 mmHg 32%
    16:00 +14°C° 0 mm 4 mps 763 mmHg 33%
    17:00 +13°C° 0 mm 4 mps 763 mmHg 36%
    18:00 +12°C° 0 mm 3 mps 763 mmHg 39%
    19:00 +11°C° 0 mm 3 mps 764 mmHg 43%
    20:00 +11°C° 0 mm 3 mps 763 mmHg 46%
    21:00 +10°C° 0 mm 3 mps 763 mmHg 49%
    22:00 +10°C° 0 mm 2 mps 763 mmHg 52%
    23:00 +10°C° 0 mm 2 mps 763 mmHg 54%

    25 March, Monday

    Time Temperature Precipitation Wind Pressure Humidity
    00:00 +9°C° 0 mm 2 mps 762 mmHg 57%
    01:00 +9°C° 0 mm 2 mps 761 mmHg 60%
    02:00 +9°C° 0 mm 2 mps 761 mmHg 64%
    03:00 +9°C° 0 mm 2 mps 760 mmHg 67%
    04:00 +8°C° 0 mm 2 mps 760 mmHg 71%
    05:00 +9°C° 0 mm 2 mps 759 mmHg 73%
    06:00 +9°C° 0 mm 2 mps 759 mmHg 75%
    07:00 +9°C° 0 mm 3 mps 759 mmHg 78%
    08:00 +9°C° 0.2 mm 3 mps 758 mmHg 78%
    09:00 +10°C° 0.2 mm 3 mps 757 mmHg 79%
    10:00 +10°C° 0.2 mm 4 mps 756 mmHg 80%
    11:00 +13°C° 0 mm 5 mps 754 mmHg 70%
    12:00 +16°C° 0 mm 6 mps 753 mmHg 59%
    13:00 +18°C° 0 mm 8 mps 752 mmHg 49%
    14:00 +17°C° 0.6 mm 8 mps 751 mmHg 56%
    15:00 +16°C° 0.6 mm 8 mps 751 mmHg 63%
    16:00 +15°C° 0.6 mm 8 mps 750 mmHg 70%
    17:00 +13°C° 0.5 mm 8 mps 751 mmHg 71%
    18:00 +12°C° 0.5 mm 8 mps 752 mmHg 72%
    19:00 +10°C° 0.5 mm 8 mps 753 mmHg 72%
    20:00 +8°C° 0 mm 7 mps 755 mmHg 67%
    21:00 +4°C° 0 mm 7 mps 757 mmHg 61%
    22:00 0°C° 0 mm 7 mps 758 mmHg 56%
    23:00 -1°C° 0 mm 7 mps 759 mmHg 52%

    26 March, Tuesday

    Time Temperature Precipitation Wind Pressure Humidity
    00:00 -2°C° 0 mm 6 mps 760 mmHg 49%
    01:00 -3°C° 0 mm 6 mps 761 mmHg 45%
    02:00 -3°C° 0 mm 6 mps 762 mmHg 47%
    03:00 -4°C° 0 mm 5 mps 763 mmHg 48%
    04:00 -4°C° 0 mm 5 mps 763 mmHg 50%
    05:00 -4°C° 0 mm 5 mps 764 mmHg 47%
    06:00 -4°C° 0 mm 5 mps 765 mmHg 43%
    07:00 -4°C° 0 mm 5 mps 766 mmHg 40%
    08:00 -4°C° 0 mm 5 mps 767 mmHg 36%
    09:00 -2°C° 0 mm 5 mps 767 mmHg 32%
    10:00 -1°C° 0 mm 5 mps 768 mmHg 28%
    11:00 0°C° 0 mm 5 mps 768 mmHg 27%
    12:00 +1°C° 0 mm 5 mps 768 mmHg 25%
    13:00 +2°C° 0 mm 5 mps 768 mmHg 24%
    14:00 +2°C° 0 mm 5 mps 768 mmHg 23%
    15:00 +2°C° 0 mm 5 mps 768 mmHg 23%
    16:00 +2°C° 0 mm 5 mps 768 mmHg 23%
    17:00 +1°C° 0 mm 5 mps 769 mmHg 25%
    18:00 0°C° 0 mm 5 mps 770 mmHg 26%
    19:00 -1°C° 0 mm 5 mps 771 mmHg 28%
    20:00 -2°C° 0 mm 5 mps 772 mmHg 30%
    21:00 -4°C° 0 mm 5 mps 772 mmHg 33%
    22:00 -4°C° 0 mm 4 mps 773 mmHg 35%
    23:00 -4°C° 0 mm 4 mps 773 mmHg 35%
    Show more